千帆星座-74 (QIANFAN-74)

导读

QIANFAN-74 是中国“千帆星座”计划中的一颗低轨卫星,主要用于提供全球卫星互联网服务。该卫星具备高速数据传输和低延迟通信能力,支持宽带接入、物联网连接及应急通信等多种应用场景。作为星座组网的重要组成部分,QIANFAN-74 与其他卫星协同工作,旨在构建覆盖全球的天地一体化网络,提升我国在空间信息领域的自主保障能力与国际竞争力。

Basic Information
目录编号:
63160
目录名称:
QIANFAN-74
国际标识:
2025-046B
轨道中心:
EARTH
卫星名称:
千帆星座-74
卫星全名:
千帆星座-74 (QIANFAN-74)
卫星状态:
在轨 (已飞行549 天)
发射日期:
2025-03-11 UTC
国别 :
中国 (CN)
星等 :
--
Orbit Information
数据来源 国际轨道数据 AOE轨道数据
星历时间 2026-09-11T00:42:32+0800
11小时前
查看轨道信息
2026-09-10T10:00:00+0800
1天前
查看轨道信息
半长轴 7446.65km 7446.642km
偏心率 0.0001844 0.0001987
轨道倾角 88.966° 88.960°
近地点辐角 95.355° 123.817°
升交点赤经 291.680° 291.744°
平近点角 264.782° 137.315°
近地点 1067.139km 1067.025km
远地点 1069.887km 1069.985km
周期 106.586分钟 106.586分钟
每日圈数 13.510188 13.510209
Detailed Information
卫星平台:
74
覆盖范围:
全球
运营商:
上海垣信卫星科技有限公司
运营商所在国:
中国
使用方式:
暂无
Satellite Introduction
千帆星座,也被称为“G60星链”计划,是中国版“星链”的重要组成部分,旨在打造一个由1.4万多颗低轨宽频多媒体卫星构成的庞大星座。千帆星座计划由上海垣信卫星科技有限公司负责实施,于2023年启动建设。该项目是我国第二个低轨卫星大星座,旨在通过构建庞大的卫星网络,为全球用户提供高质量的通信和宽带互联网服务。
2D Orbit Map
3D Orbit Map
Orbit Altitude Analysis Chart
Orbit Inclination Analysis Chart
Orbit Comprehensive Analysis Chart
View Comprehensive Chart
Conjunction Data List
Event ID Objects TCA Miss Dist (km) Collision Risk Probability Collision Risk Index (CRI) Action
CDM_260913-060303-199106-316021
2026-09-13T
06:03:49+0000
0.778 km
远距离
6.164623E-5 中风险 0.71
CDM_260912-025501-836106-316025
OSCAR 27 (18361)
2026-09-12T
02:55:58+0000
2.024 km
极远距离
2.725408E-6 低风险 0.44
Miss Distance Evolution Trend with All Objects
Collision Probability Evolution Trend with All Objects